Weather History for Charlottetown, PE

Change the Weather History Date:

Saturday, August 3, 2013

  Actual Average Record
Temperature  
Mean Temperature 68 °F -  
Max Temperature 77 °F 71 °F 84 °F (2007)
Min Temperature 60 °F 55 °F 50 °F (2010)
Cooling Degree Days 4    
Growing Degree Days 18 (Base 50)    
Moisture  
Dew Point 62 °F    
Average Humidity 84    
Maximum Humidity 100    
Minimum Humidity 55    
Precipitation  
Precipitation 0.12 in 0.12 in - ()
Sea Level Pressure  
Sea Level Pressure 29.75 in    
Wind  
Wind Speed 8 mph ()    
Max Wind Speed 23 mph    
Max Gust Speed 34 mph    
Visibility 13.5 miles    
Events Fog , Rain , Thunderstorm    
Averages and records for this station are not official NWS values.
T = Trace of Precipitation, MM = Missing Value Source: Averaged Metar Reports

Daily Weather History Graph

Daily Weather History Graph

Search for Another Location

Airport:

Trip Planner

Search our weather history database for the weather conditions in past years. The results will help you decide how hot, cold, wet, or windy it might be!

Date:

Astronomy

Aug. 03, 2013 Rise Set
Actual Time 5:56 AM ADT 8:39 PM ADT
Civil Twilight 5:22 AM ADT 9:14 PM ADT
Nautical Twilight 4:38 AM ADT 9:57 PM ADT
Astronomical Twilight 3:47 AM ADT 10:48 PM ADT
Moon 3:00 AM ADT (8/3) 6:20 PM ADT (8/3)
Length of Visible Light 15h 52m
Length of Day
14h 43m
Waning Crescent, 10% of the Moon is Illuminated
Aug 3
Waning Crescent
Aug 6
New
Aug 14
First Quarter
Aug 20
Full
Aug 28
Last Quarter

Hourly Weather History & Observations

Time (ADT) Temp. Dew Point Humidity Pressure Visibility Wind Dir Wind Speed Gust Speed Precip Events Conditions
12:00 AM 66.2 °F 64.4 °F 94% 29.78 in 15.0 mi South 6.9 mph - N/A   Mostly Cloudy
1:00 AM 66.2 °F 62.6 °F 88% 29.80 in 15.0 mi SSW 8.1 mph - N/A   Mostly Cloudy
1:49 AM 66.2 °F 62.6 °F 88% 29.79 in 12.0 mi SSW 8.1 mph - N/A Rain Light Rain Showers
2:00 AM 66.2 °F 64.4 °F 94% 29.78 in 6.0 mi SSW 8.1 mph - N/A Rain Light Rain Showers
3:00 AM 65 °F 64 °F 96% 29.77 in 6 mi SSW 8.1 mph - - Rain Light Rain Showers
3:00 AM 64.4 °F 64.4 °F 100% 29.77 in 6.0 mi SSW 9.2 mph - N/A Rain Light Rain Showers
4:00 AM 64.4 °F 64.4 °F 100% 29.76 in 15.0 mi SW 8.1 mph - N/A Rain Light Rain Showers
4:45 AM 64.4 °F 62.6 °F 94% 29.76 in 10.0 mi WSW 11.5 mph - N/A   Overcast
5:00 AM 64.4 °F 62.6 °F 94% 29.76 in 10.0 mi SW 8.1 mph - N/A   Overcast
6:00 AM 64.4 °F 62.6 °F 94% 29.77 in 12.0 mi WSW 10.4 mph - N/A   Mostly Cloudy
6:16 AM 64.4 °F 62.6 °F 94% 29.77 in 15.0 mi SW 6.9 mph - N/A   Mostly Cloudy
6:45 AM 64.4 °F 62.6 °F 94% 29.78 in 15.0 mi WSW 8.1 mph - N/A   Mostly Cloudy
7:00 AM 64.4 °F 62.6 °F 94% 29.78 in 15.0 mi WSW 6.9 mph - N/A   Mostly Cloudy
7:21 AM 64.4 °F 62.6 °F 94% 29.78 in 15.0 mi SW 8.1 mph - N/A   Mostly Cloudy
7:47 AM 66.2 °F 62.6 °F 88% 29.78 in 15.0 mi WSW 8.1 mph - N/A   Mostly Cloudy
8:00 AM 66.2 °F 62.6 °F 88% 29.79 in 15.0 mi WSW 6.9 mph - N/A   Mostly Cloudy
8:37 AM 66.2 °F 60.8 °F 83% 29.78 in 15.0 mi West 11.5 mph - N/A   Mostly Cloudy
9:00 AM 67 °F 61 °F 77% 29.78 in 15 mi WSW 10.4 mph - -   Partly Cloudy
9:00 AM 66.2 °F 60.8 °F 83% 29.78 in 15.0 mi WSW 9.2 mph - N/A   Mostly Cloudy
9:22 AM 68.0 °F 60.8 °F 78% 29.78 in 15.0 mi SW 11.5 mph - N/A   Mostly Cloudy
10:00 AM 68.0 °F 62.6 °F 83% 29.79 in 15.0 mi SW 9.2 mph - N/A   Mostly Cloudy
10:15 AM 68.0 °F 60.8 °F 78% 29.79 in 15.0 mi SW 10.4 mph - N/A   Mostly Cloudy
11:00 AM 69.8 °F 62.6 °F 78% 29.78 in 15.0 mi SSW 12.7 mph - N/A   Mostly Cloudy
12:00 PM 71.6 °F 62.6 °F 73% 29.77 in 15.0 mi South 12.7 mph 19.6 mph N/A   Partly Cloudy
1:00 PM 75.2 °F 62.6 °F 65% 29.75 in 15.0 mi SW 11.5 mph - N/A   Scattered Clouds
2:00 PM 75.2 °F 62.6 °F 65% 29.74 in 15.0 mi SSW 15.0 mph 21.9 mph N/A   Mostly Cloudy
3:00 PM 75 °F 62 °F 55% 29.73 in 15 mi SSW 13.8 mph - -   Scattered Clouds
3:00 PM 75.2 °F 62.6 °F 65% 29.72 in 15.0 mi SSW 16.1 mph - N/A   Mostly Cloudy
4:00 PM 77.0 °F 64.4 °F 65% 29.70 in 15.0 mi South 10.4 mph - N/A   Mostly Cloudy
5:00 PM 75.2 °F 60.8 °F 61% 29.68 in 15.0 mi South 10.4 mph - N/A Thunderstorm Thunderstorm
5:19 PM 73.4 °F 60.8 °F 65% 29.69 in 10.0 mi South 10.4 mph - N/A Rain , Thunderstorm Thunderstorms and Rain
5:29 PM 68.0 °F 62.6 °F 83% 29.71 in 2.0 mi SSW 23.0 mph 33.4 mph N/A Rain , Thunderstorm Heavy Thunderstorms and Rain
5:38 PM 64.4 °F 60.8 °F 88% 29.70 in 15.0 mi South 17.3 mph 34.5 mph N/A Rain , Thunderstorm Light Thunderstorms and Rain
6:00 PM 66.2 °F 62.6 °F 88% 29.70 in 15.0 mi West 6.9 mph - N/A   Mostly Cloudy
7:00 PM 68.0 °F 64.4 °F 88% 29.68 in 15.0 mi South 10.4 mph - N/A   Mostly Cloudy
8:00 PM 69.8 °F 64.4 °F 83% 29.69 in 15.0 mi SSW 9.2 mph - N/A   Mostly Cloudy
9:00 PM 65 °F 61 °F 84% 29.69 in 15 mi NNW 4.6 mph - -   Partly Cloudy
9:00 PM 64.4 °F 60.8 °F 88% 29.68 in 15.0 mi NW 4.6 mph - N/A   Mostly Cloudy
10:00 PM 60.8 °F 60.8 °F 100% 29.70 in 15.0 mi NNW 2.3 mph - N/A   Scattered Clouds
11:00 PM 62.6 °F 59.0 °F 88% 29.70 in 15.0 mi South 4.6 mph - N/A Fog Shallow Fog